Overview Statistics Trail Chart Weather Telemetry Raw packets
 

This is the latest recevied weather packets stored in our database for station/object KQ7A. If no packets are shown the sender has not sent any weather packets the latest 10 day(s).

<< 44 45 46 47 48 49 50 >>
Time Temp. Humidity Pressure Rain* Wind** Luminosity Snow
1788378266 20.56° C 32% 1017.8 hPa 0 mm - 876 W/m² -
1788377961 20° C 30% 1017.7 hPa 0 mm - 533 W/m² -
1788377657 19.44° C 30% 1017 hPa 0 mm - 507 W/m² -
1788377356 18.89° C 32% 1017.6 hPa 0 mm - 473 W/m² -
1788377055 19.44° C 30% 1017.6 hPa 0 mm - 464 W/m² -
1788376754 19.44° C 31% 1017.6 hPa 0 mm - 438 W/m² -
1788376449 19.44° C 30% 1017.4 hPa 0 mm - 691 W/m² -
1788376144 18.89° C 33% 1017.7 hPa 0 mm - 429 W/m² -
1788375839 18.33° C 32% 1018.1 hPa 0 mm - 304 W/m² -
1788375535 17.78° C 37% 1018.1 hPa 0 mm - 547 W/m² -
1788375230 17.22° C 35% 1018.1 hPa 0 mm - 308 W/m² -
1788374926 17.22° C 40% 1018.4 hPa 0 mm - 291 W/m² -
1788374621 17.22° C 42% 1018.5 hPa 0 mm - 294 W/m² -
1788374316 17.22° C 41% 1018.4 hPa 0 mm - 253 W/m² -
1788374013 16.67° C 40% 1018.3 hPa 0 mm - 242 W/m² -
1788373708 16.67° C 40% 1018.6 hPa 0 mm - 261 W/m² -
1788373405 16.11° C 40% 1018.5 hPa 0 mm - 255 W/m² -
1788373101 16.67° C 42% 1018.2 hPa 0 mm - 235 W/m² -
1788372796 16.67° C 41% 1018.4 hPa 0 mm - 266 W/m² -
1788372496 16.11° C 43% 1018.4 hPa 0 mm - 256 W/m² -
1788372192 16.11° C 43% 1018.4 hPa 0 mm - 247 W/m² -
1788371887 15.56° C 43% 1018.5 hPa 0 mm - 217 W/m² -
1788371582 15.56° C 43% 1018.5 hPa 0 mm - 240 W/m² -
1788371277 15.56° C 44% 1018.8 hPa 0 mm - 228 W/m² -
1788370974 15.56° C 44% 1018.6 hPa 0 mm - 209 W/m² -

* Rain latest hour (hover to see other rain measurements)
** Current wind speed in m/s (hover to see current wind gust speed)